SCP
0 0 0 0 0 0 0 0 0 0 0 0 0 0 0 0 0 0 0 0 0 0 0 1 1 0 0 0 0 0 0 0 0 0 0 0 0 0 0 0 0 0 0 0 -0 -0 -0 0 0
0 0 0 0 0 0 0 0 0 0 0 0 0 0 0 0 0 0 0 0 0 1 1 1 1 1 0 0 0 0 0 0 0 0 0 0 0 0 0 0 0 0 0 0 0 -0 -0 0 0
0 0 0 0 0 0 0 0 0 0 0 0 1 1 0 0 0 0 0 0 1 1 1 1 1 1 0 0 0 0 0 0 0 0 0 0 0 0 0 0 0 0 0 0 0 0 -0 -0 -0
0 0 0 0 0 0 0 0 0 0 0 1 1 1 1 0 0 0 1 1 1 1 1 1 1 1 1 0 0 0 0 0 0 0 0 0 0 0 0 0 0 0 0 0 0 0 -0 -0 -0
0 0 0 0 0 0 0 0 0 0 1 1 1 1 1 1 1 1 1 1 1 1 1 1 1 1 1 0 0 0 0 0 0 0 0 0 0 0 0 0 0 0 0 0 0 0 0 -0 -0
0 0 0 0 0 0 0 0 0 1 1 1 1 1 1 1 1 1 1 1 1 1 1 1 1 1 1 0 0 0 0 0 0 0 0 0 0 0 0 0 0 0 0 0 0 0 0 0 0
0 0 0 0 0 0 0 0 0 1 1 1 1 1 1 1 1 1 1 1 1 1 1 1 1 1 1 0 0 0 0 0 0 0 0 0 0 0 0 0 0 0 0 0 0 0 0 0 0
0 0 0 0 0 0 0 0 0 1 1 1 1 1 1 1 1 1 1 1 1 1 1 1 1 1 1 0 0 0 0 0 0 0 0 0 0 0 0 0 0 0 0 0 0 0 0 0 0
0 0 0 0 0 0 0 0 0 1 1 1 1 1 1 1 1 1 1 1 1 1 1 1 1 1 1 0 0 0 0 0 0 0 0 0 0 0 0 0 0 0 0 0 0 0 0 0 0
0 0 0 0 0 0 0 0 0 1 1 1 2 2 2 2 2 1 1 1 1 1 1 1 1 1 1 0 0 0 0 0 0 0 0 0 0 0 0 0 0 0 0 0 0 0 0 0 0
0 0 0 0 0 0 0 0 0 1 1 2 2 2 2 2 2 1 1 1 1 1 1 1 1 1 0 0 0 0 0 0 0 0 0 0 0 0 0 0 0 0 0 0 0 0 0 0 0
0 0 0 0 0 0 0 0 0 1 1 2 2 2 2 1 1 1 1 1 1 1 0 0 0 0 0 0 0 0 0 0 0 0 0 0 0 0 0 0 0 0 0 0 0 0 0 0 0
-0 0 0 0 0 0 0 0 1 1 1 2 2 2 1 1 1 1 1 1 1 1 0 0 0 0 0 0 0 0 0 0 0 0 0 0 0 0 0 0 0 0 0 0 0 0 0 0 0
-0 0 0 0 0 0 0 0 1 1 1 2 2 2 1 1 1 1 1 1 1 1 0 0 0 0 0 0 0 0 0 0 0 0 0 0 0 0 0 0 0 0 0 0 0 0 0 0 0
-0 0 0 0 0 0 0 0 1 1 1 1 2 1 1 1 1 1 1 1 1 1 0 0 0 0 0 0 0 0 0 0 0 0 0 0 0 0 0 0 0 0 0 0 0 0 0 0 0
0 0 0 0 0 0 0 0 0 1 1 1 1 1 1 1 1 1 1 1 1 1 1 1 1 1 0 0 0 0 0 0 0 0 0 0 0 0 0 0 0 0 0 0 0 0 0 0 0
0 0 0 0 0 0 0 0 0 1 1 1 1 1 1 1 1 1 1 1 1 1 1 1 1 1 0 0 0 0 0 0 0 0 0 0 0 0 0 0 0 0 0 0 0 0 0 0 0
0 0 0 0 0 0 0 0 0 1 1 1 1 1 1 1 1 1 1 1 1 1 1 1 1 1 0 0 0 0 0 0 0 0 0 0 0 0 0 0 0 0 0 0 0 0 0 0 0
0 0 0 0 0 0 0 0 0 1 1 1 1 1 1 1 1 1 1 1 1 1 1 1 1 0 0 0 0 0 0 0 0 0 0 0 0 0 0 0 0 0 0 0 0 0 0 0 0
0 0 0 0 0 0 0 0 0 0 0 1 1 1 1 1 1 1 0 0 0 0 1 1 0 0 0 0 0 0 0 0 0 0 0 0 0 0 0 0 0 0 0 0 0 0 0 0 0
0 0 0 0 0 0 0 0 0 0 0 0 1 1 1 1 0 0 0 0 0 0 0 0 0 0 0 0 0 0 0 0 0 0 0 0 0 0 0 0 0 0 0 0 0 0 0 0 0
0 0 0 0 0 0 0 0 0 0 0 0 0 0 0 0 0 0 0 0 0 0 0 0 0 0 0 0 0 0 0 0 0 0 0 0 0 0 0 0 0 0 0 0 0 0 0 0 0
0 0 0 0 0 0 0 0 0 0 0 0 0 0 0 0 0 0 0 0 0 0 0 0 0 0 0 0 0 0 0 0 0 0 0 0 0 0 0 0 0 0 0 0 0 0 0 0 0
0 0 0 0 0 0 0 0 0 0 0 0 0 0 0 0 0 0 0 0 0 0 0 0 0 0 0 0 0 0 0 0 0 0 0 0 0 0 0 0 0 0 0 0 0 0 0 0 0
0 0 0 0 0 0 0 0 0 0 0 0 0 0 0 0 0 0 0 0 0 0 0 0 0 0 0 0 0 0 0 0 0 0 0 0 0 0 0 0 0 0 0 0 0 0 0 0 0
0 0 0 0 0 0 0 0 0 0 0 0 0 0 0 0 0 0 0 0 0 0 0 0 0 0 0 0 0 0 0 0 0 0 0 0 0 0 0 0 0 0 0 0 0 0 0 0 0
0 0 0 0 0 0 0 0 0 0 0 0 0 0 0 0 0 0 0 0 0 0 0 0 0 0 0 0 0 0 0 0 0 0 0 0 0 0 0 0 0 0 0 0 0 0 0 0 0
0 0 0 0 0 0 0 0 0 0 0 0 0 0 0 0 0 0 0 0 0 0 0 0 0 0 0 0 0 0 0 0 0 0 0 0 0 0 0 0 0 0 0 0 0 0 0 0 0
0 0 0 0 0 0 0 0 0 0 0 0 0 0 0 0 0 0 0 0 0 0 0 0 0 0 0 0 0 0 0 0 0 0 0 0 0 0 0 0 0 0 0 0 0 0 0 0 0
0 0 0 0 0 0 0 0 0 0 0 0 0 0 0 0 0 0 0 0 0 0 0 0 0 0 0 0 0 0 0 0 0 0 0 0 0 0 0 0 0 0 0 0 0 0 0 0 0
Wind_Speed
5 4 2 1 2 2 3 4 3 3 1 2 7 10 9 5 4 4 4 11 16 16 13 16 18 19 19 18 18 17 17 16 16 15 15 14 14 14 14 14 13 13 12 12 12 11 11 11 11
3 4 2 2 2 1 4 4 3 3 4 7 9 9 7 5 5 8 7 12 16 15 12 14 19 19 19 19 18 17 17 16 15 15 15 14 14 14 13 13 13 12 12 12 11 11 11 10 10
3 2 1 2 1 3 4 3 5 4 4 4 6 7 5 5 6 6 9 16 15 12 11 15 21 20 19 19 18 17 17 16 15 15 14 14 13 13 13 13 12 12 11 11 11 10 10 9 9
1 1 1 1 6 8 7 6 5 6 4 5 9 8 5 3 4 9 15 16 15 11 10 15 21 20 19 19 18 17 17 16 15 14 14 13 13 13 12 12 12 11 11 10 10 9 8 8 7
2 2 1 3 7 7 5 6 7 6 5 6 10 7 4 3 13 17 15 15 14 11 10 13 20 20 19 19 18 18 17 16 15 14 13 13 12 12 12 11 11 10 10 9 8 8 7 6 6
1 2 1 4 6 4 1 5 8 9 7 7 8 8 4 5 14 15 14 13 13 13 10 12 19 20 19 18 18 18 17 16 15 14 13 12 12 11 11 10 10 10 9 8 7 6 6 5 4
2 1 3 5 4 2 2 4 7 8 7 6 8 8 4 6 12 13 13 12 11 12 10 9 11 15 18 18 17 17 17 16 15 14 13 12 12 11 10 10 9 9 8 7 6 5 4 3 3
4 1 4 4 2 1 1 3 5 8 7 6 7 10 8 9 12 14 13 12 10 9 9 8 8 8 9 11 16 16 16 15 14 13 12 12 11 11 10 9 8 8 7 6 6 5 3 2 1
2 1 5 5 2 2 1 4 3 6 8 4 3 6 11 17 16 15 12 10 9 10 8 8 8 8 7 8 12 13 14 14 12 10 12 9 4 4 5 7 8 8 7 6 5 4 3 2 0
5 4 9 7 3 1 1 3 5 5 7 5 6 9 16 17 17 18 16 15 14 12 10 8 9 8 8 8 7 4 5 6 5 3 4 3 3 3 4 6 8 7 6 5 5 4 2 1 0
5 8 8 6 4 1 0 1 3 8 4 7 13 15 16 16 15 16 17 17 15 13 12 10 9 8 7 5 6 3 2 3 3 4 4 3 3 2 2 2 2 2 3 2 2 1 0 1 1
5 8 6 4 4 2 1 2 3 4 7 10 16 18 16 15 14 15 16 15 13 12 12 10 9 8 7 6 5 4 3 3 3 3 4 3 2 2 2 2 2 1 1 1 1 1 1 1 1
4 5 5 5 4 3 1 2 4 3 7 12 15 14 12 13 10 10 11 12 11 11 10 9 9 8 7 6 5 6 4 4 4 3 4 4 3 3 2 2 1 2 1 2 2 1 1 1 1
6 8 9 7 5 3 1 1 6 5 9 12 12 11 10 10 9 9 11 11 10 9 10 9 9 8 7 6 5 5 5 4 4 3 4 4 3 3 3 2 2 2 1 2 2 2 1 1 1
5 8 12 8 4 3 3 1 3 8 10 11 10 10 10 9 9 10 12 11 11 9 10 10 9 8 7 7 7 6 5 5 4 3 4 4 4 3 3 3 2 1 1 2 2 2 2 2 1
5 5 6 9 3 3 5 4 3 8 11 9 9 10 9 8 9 9 11 10 11 10 10 11 10 9 8 6 6 6 5 5 4 3 3 4 4 4 4 3 2 1 2 2 3 2 2 2 2
4 4 7 7 4 3 4 4 3 8 10 9 8 9 9 8 7 8 10 10 11 11 11 10 10 10 8 7 6 6 6 5 4 4 3 4 4 5 4 3 2 2 3 2 2 2 2 2 1
8 7 6 5 3 3 2 2 4 7 9 9 9 9 9 9 8 8 9 10 9 9 9 10 9 9 9 7 6 5 5 4 4 3 4 5 4 5 4 3 3 3 3 3 2 3 2 1 1
11 10 8 7 2 2 2 2 3 5 6 8 9 9 9 8 6 6 7 9 9 8 10 10 9 8 7 6 6 6 5 4 3 3 4 4 4 4 4 3 3 3 3 3 2 2 3 2 1
11 9 7 5 3 4 3 2 3 5 6 8 10 11 10 8 7 7 7 7 9 10 10 11 10 9 7 6 5 4 5 3 3 3 3 4 4 4 4 4 3 3 3 3 3 3 2 2 2
11 6 4 2 4 7 4 3 2 1 1 4 7 9 10 12 11 10 10 8 9 10 11 10 10 9 7 7 5 5 4 3 2 2 2 3 4 5 5 5 4 3 3 3 3 3 3 2 2
9 7 2 0 3 3 3 1 5 3 1 2 5 7 9 10 10 9 10 10 10 10 9 9 9 8 7 7 7 8 6 5 4 4 3 3 4 5 5 5 5 4 3 3 2 3 3 3 2
8 4 2 3 4 3 3 2 7 2 2 4 5 8 10 10 11 10 10 11 9 9 9 9 9 8 7 7 8 8 5 4 3 3 4 3 3 4 4 5 4 4 3 3 3 3 3 2 2
4 4 6 6 6 3 2 2 6 4 5 4 6 9 10 11 11 9 8 8 7 7 8 9 9 8 8 8 8 8 8 6 6 5 5 3 2 2 4 4 4 4 3 3 3 3 4 3 3
3 4 5 6 5 3 2 2 8 8 6 6 7 10 11 11 11 10 9 9 8 9 9 9 10 9 9 9 8 8 8 8 8 7 6 5 3 3 4 4 4 4 4 4 4 3 3 3 3
4 7 6 4 4 3 1 4 8 7 5 3 5 8 10 10 10 11 11 10 10 10 10 10 11 10 9 9 7 7 7 5 5 6 5 6 5 5 5 6 5 5 5 5 4 2 2 2 2
3 4 7 7 2 1 2 4 7 4 1 1 3 6 9 11 12 12 11 10 10 10 10 11 11 10 9 9 7 7 7 6 6 6 5 4 4 5 6 6 6 6 6 5 5 3 3 3 3
6 5 5 5 4 2 2 4 5 5 4 4 5 6 8 9 11 11 11 11 10 10 10 10 11 11 10 10 8 8 7 7 6 5 6 5 5 5 6 7 7 6 6 6 5 3 3 4 4
1 2 4 4 6 7 4 7 7 9 8 7 7 7 7 9 11 11 10 10 10 9 10 10 10 9 9 9 8 7 6 6 5 5 6 5 5 6 7 7 7 7 7 6 6 5 5 5 5
5 6 7 5 3 5 5 7 4 7 7 6 7 7 7 7 8 10 10 9 9 10 10 10 10 10 9 9 7 7 6 6 6 6 6 5 6 6 7 7 7 8 8 7 7 7 7 6 6
Wind_Direction
193 197 186 46 45 39 264 243 208 200 170 88 94 101 105 101 138 160 145 143 140 144 147 146 142 139 136 133 131 130 128 125 122 120 118 116 116 115 113 110 110 109 107 105 103 101 98 97 99
192 199 174 52 77 334 262 222 185 209 158 120 94 91 90 80 91 113 128 143 140 142 144 146 143 140 138 136 135 134 133 130 128 126 124 122 121 119 117 113 113 111 109 107 104 102 100 98 97
223 199 129 98 209 212 242 223 175 169 137 118 100 77 76 103 112 129 142 139 135 139 142 147 144 142 140 139 139 138 136 134 133 131 129 126 124 123 121 118 115 113 112 109 105 102 100 97 95
180 75 46 93 255 246 227 220 165 140 106 102 103 88 73 59 127 132 137 138 135 138 142 148 144 143 142 142 141 140 139 138 137 135 134 132 128 127 126 124 120 117 114 112 110 106 101 97 92
117 97 29 284 258 258 231 187 157 131 117 110 107 104 78 47 117 130 139 140 137 140 144 147 145 145 145 145 144 144 143 143 142 140 139 137 134 132 130 128 127 124 121 119 118 114 104 95 87
36 92 48 274 273 276 205 138 117 112 115 118 108 110 93 122 128 136 138 138 140 144 144 146 147 147 147 147 148 147 147 147 146 145 143 142 138 137 136 135 134 132 130 129 127 121 113 99 80
169 165 235 261 294 344 130 132 123 127 124 132 125 110 115 143 138 135 134 132 139 145 144 145 148 148 149 151 151 151 150 150 150 150 150 149 145 143 142 142 143 140 139 140 139 135 127 115 82
178 110 288 281 285 317 126 114 122 125 124 126 123 133 154 165 143 135 132 130 134 142 144 146 145 145 147 151 154 155 154 154 154 154 156 156 155 154 153 152 152 150 149 151 150 150 144 138 100
179 57 272 262 262 283 117 103 105 95 109 101 103 143 145 143 141 133 131 132 141 150 150 150 149 145 145 150 159 158 157 157 156 159 161 159 155 156 159 168 166 161 161 163 167 169 174 187 272
156 193 241 237 238 269 54 115 132 108 102 95 91 105 129 141 146 147 150 154 157 161 160 157 153 150 153 161 149 154 155 152 147 151 153 147 153 168 166 179 177 171 171 176 183 191 198 200 298
195 214 245 260 260 275 27 89 120 127 137 168 155 149 148 148 151 156 158 160 162 161 162 161 158 157 164 151 149 153 145 142 145 150 145 142 135 139 135 135 162 162 166 163 185 191 216 230 236
249 258 257 267 288 302 234 151 116 145 175 166 157 153 154 155 159 161 160 159 160 163 164 159 156 161 165 152 156 154 149 151 150 148 142 131 125 118 125 126 133 126 125 136 131 151 216 217 157
277 285 295 279 294 277 241 135 134 128 133 140 145 146 154 156 158 151 152 150 151 157 163 161 156 157 159 153 160 155 154 151 143 134 131 130 129 130 126 126 126 131 128 132 135 154 162 128 107
286 305 301 288 283 273 215 129 122 149 139 139 145 151 154 153 150 144 147 147 154 162 161 157 150 153 155 156 152 147 147 142 132 126 130 127 126 129 126 122 117 110 118 124 130 131 119 117 106
304 314 307 287 268 232 118 25 178 153 144 146 152 150 147 149 152 156 156 153 156 163 158 153 151 153 154 151 150 144 144 137 129 128 124 117 116 121 125 123 117 109 108 103 92 83 72 75 71
324 311 287 278 245 209 127 243 218 148 142 147 153 154 151 151 153 156 154 155 154 157 155 159 159 157 156 147 139 138 137 134 133 132 121 111 110 117 114 115 115 108 94 94 95 83 74 62 68
320 276 275 286 245 173 146 222 181 150 142 146 149 152 152 147 149 152 153 156 157 156 157 160 156 157 151 140 131 131 133 133 136 131 125 116 115 115 112 111 112 102 90 82 98 82 95 86 58
275 284 291 288 258 160 151 192 159 158 148 151 155 152 154 161 170 162 156 159 159 158 157 152 154 151 145 133 122 118 118 125 128 130 130 121 115 108 106 103 92 94 93 80 80 82 73 95 88
262 279 286 285 262 111 109 128 173 163 154 159 159 157 162 165 163 157 155 162 158 162 159 154 158 154 147 141 140 139 138 138 133 144 136 127 119 110 106 103 93 98 102 108 104 92 70 43 62
272 284 287 306 21 79 89 100 194 177 179 177 165 162 157 153 157 161 159 168 166 168 167 162 161 160 158 151 146 142 136 143 143 139 132 133 125 120 117 113 109 106 101 87 79 85 83 32 59
279 265 253 251 71 49 71 17 289 277 181 159 161 165 162 166 170 171 170 178 173 174 173 166 165 161 156 147 129 120 103 95 99 124 138 148 136 124 120 123 117 110 114 111 98 93 100 80 21
278 271 244 78 71 12 55 305 287 290 317 186 167 168 173 170 170 174 174 178 178 177 172 164 164 161 157 151 147 148 148 156 175 169 163 156 146 137 133 127 120 116 117 120 118 105 106 110 66
274 287 35 72 100 70 18 98 293 328 279 245 198 181 176 174 173 177 179 179 177 173 170 167 164 163 161 160 159 155 154 160 154 151 153 156 154 155 150 139 129 129 127 129 116 108 102 110 119
290 19 40 49 66 37 290 147 275 250 232 238 206 188 180 176 175 176 179 171 171 173 171 167 166 170 170 165 164 163 163 158 154 161 165 167 165 170 168 153 147 147 143 145 141 131 124 123 119
335 68 18 353 10 264 245 191 252 254 259 240 212 195 183 176 173 172 175 176 177 178 176 171 172 176 174 169 170 171 169 166 168 170 173 170 173 187 193 170 164 161 165 165 156 146 148 148 141
252 144 165 211 226 254 271 243 261 276 278 243 195 181 171 172 174 178 182 181 182 179 175 174 177 177 174 173 176 174 168 168 174 175 174 180 187 195 189 181 179 178 176 174 164 161 173 166 165
218 226 179 147 159 124 261 286 302 307 320 138 157 164 173 177 179 182 182 181 181 180 178 178 176 174 176 175 176 180 176 174 181 183 181 186 193 195 188 184 183 184 181 178 170 180 197 186 192
167 169 104 120 153 189 240 245 239 244 228 204 186 188 185 180 181 182 184 184 183 180 178 176 174 177 177 178 184 188 185 184 184 180 189 193 195 193 182 186 187 188 187 182 177 185 198 191 204
179 127 125 136 154 152 198 250 224 208 202 198 199 193 182 179 181 183 184 183 179 176 176 174 175 175 178 183 187 187 185 187 187 190 200 198 195 190 188 189 189 192 194 190 188 198 197 203 214
173 171 148 153 204 162 166 249 249 189 184 189 194 180 174 174 175 178 177 175 176 179 180 180 179 183 185 184 183 187 188 189 196 206 208 201 198 196 194 191 192 199 200 197 198 208 207 206 215